Regional Weather Roundup
Issued by NWS Jackson, KY

Home | Current Version | Previous Version | Text Only | Print | Product List | Glossary On
Versions: 1 2 3 4 5 6 7 8 9 10 11 12 13 14 15 16 17 18 19 20 21 22 23 24 25 26 27 28 29 30 31 32 33 34 35 36 37 38 39 40 41 42 43 44 45 46 47 48 49 50
000
ASUS43 KJKL 222210
RWRJKL

EAST KENTUCKY HOURLY WEATHER ROUNDUP
NATIONAL WEATHER SERVICE JACKSON KY
600 PM EDT WED MAR 22 2017

NOTE: "FAIR" INDICATES FEW OR NO CLOUDS BELOW 12,000 FEET WITH
NO SIGNIFICANT WEATHER AND/OR OBSTRUCTIONS TO VISIBILITY.

* THESE REPORTS ARE NOT UNDER NWS QUALITY CONTROL AND MAY NOT
  REPORT WEATHER SUCH AS PRECIPITATION AND FOG.

KYZ079-080-083-085-087-088-110-112-115-119-120-222300
...EASTERN KENTUCKY...

CITY           SKY/WX    TMP DP  RH WIND       PRES   REMARKS
JACKSON        SUNNY     48  15  26 NE5       30.33S
LONDON         SUNNY     51  10  19 NE12      30.31S
SOMERSET*      SUNNY     48  19  32 N14       30.33S
MONTICELLO*    SUNNY     50  20  30 N20G26    30.33S
WILLIAMSBURG*  CLEAR     52  16  24 NE13      30.30R
MIDDLESBORO*   SUNNY     56  16  21 NE12      30.28R
HARLAN APT*    CLEAR     52  14  22 NW6       30.28S
PIKE CO APT*     N/A     46  16  31 N12       30.33S
BIG SANDY APT* CLEAR     47  16  29 N6        30.35S
MOREHEAD APT*  CLEAR     46  12  25 NE12      30.39S
ASHLAND*       SUNNY     48  23  37 NE7       30.40R
$$

KYZ035-036-041-042-044-050-067-078-099-222300
...CENTRAL KENTUCKY...

CITY           SKY/WX    TMP DP  RH WIND       PRES   REMARKS
MT STERLING*   SUNNY     45  21  39 NE10      30.39R
FLEMING/MASON* SUNNY     44  17  33 N8        30.42S
DANVILLE*      SUNNY     45  21  39 NE13      30.36S
LEXINGTON      SUNNY     46  17  31 NE16G24   30.38S
FRANKFORT      SUNNY     47  13  25 N9        30.38S
LOUISVILLE     MOSUNNY   50  12  21 NE13      30.39S
LEBANON*         N/A     46  18  31 NE8       30.36S
GLASGOW*       SUNNY     51  19  28 NE13G20   30.34R
BOWLING GREEN  SUNNY     54  16  22 NE15      30.33S
$$

KYZ091>093-OHZ055-061-077-WVZ005-015-034-035-042-222300
...SOUTHERN OHIO/WEST VIRGINIA...

CITY           SKY/WX    TMP DP  RH WIND       PRES   REMARKS
COVINGTON      SUNNY     42  16  34 NE14      30.43S
COLUMBUS       SUNNY     41  14  33 NE14G20   30.47S
DAYTON         SUNNY     38  19  46 NE10      30.47S WCI  31
WILMINGTON     SUNNY     37  22  54 NE13      30.45S WCI  29
HUNTINGTON     SUNNY     45  15  30 N9        30.39S
CHARLESTON     SUNNY     45  14  28 NE8       30.38R
PINEVILLE*     SUNNY     48   9  20 MISG      30.36R
BECKLEY        SUNNY     42  12  29 N14       30.29S
BLUEFIELD      SUNNY     43  15  32 N9        30.27R
LOGAN CO APT*    N/A     45  12  26 N6        30.33S
$$

VAZ002-007-008-TNZ017-027-036-066-071-222300
...SOUTHWEST VIRGINIA/EAST TENNESSEE...

CITY           SKY/WX    TMP DP  RH WIND       PRES   REMARKS
WISE*          SUNNY     45  14  29 CALM      30.29S
JONESVILLE*      N/A     55  14  19 NW8       30.29R
ABINGDON*      SUNNY     52  10  18 E10       30.26R
BRISTOL        MOSUNNY   54  15  21 N8        30.26S
MORRISTOWN*    CLEAR     57  14  18 NE6G13    30.23S
SEVIERVILLE*   CLEAR     57  19  23 VRB6      30.24R
KNOXVILLE      PTSUNNY   59  17  19 NE9       30.23S
LAFOLLETTE*    CLEAR     55  18  22 VRB3G14   30.29S
OAK RIDGE      SUNNY     60  17  18 VRB5      30.26R
CROSSVILLE     SUNNY     54  17  23 NE9       30.25S
NASHVILLE      PTSUNNY   58  16  19 N13       30.29F
$$

...KEY TO REMARKS...
VSB - VISIBILITY IN MILES
WCI - WIND CHILL INDEX
HX  - HEAT INDEX

$$



USA.gov is the U.S. government's official web portal to all federal, state and local government web resources and services.